Weather History for Borger, TX

Change the Weather History Date:

Wednesday, March 20, 2013

  Actual Average Record
Temperature  
Mean Temperature 47 °F 51 °F  
Max Temperature 64 °F 64 °F 84 °F (2011)
Min Temperature 30 °F 37 °F 14 °F (1965)
Degree Days  
Heating Degree Days 18 14  
Month to date heating degree days 287 345  
Since 1 July heating degree days 3009 3338  
Cooling Degree Days 0 0  
Month to date cooling degree days 0 0  
Year to date cooling degree days 0 0  
Moisture  
Dew Point 18 °F    
Average Humidity 38    
Maximum Humidity 58    
Minimum Humidity 17    
Precipitation  
Precipitation 0.00 in 0.03 in 2.04 in (1985)
Month to date precipitation 0.02 0.85  
Year to date precipitation 3.07 2.06  
Snow  
Snow 0.00 in - 1.50 in (2010)
Month to date snowfall T  
Since 1 July snowfall 27.2  
Snow Depth 0.00 in    
Sea Level Pressure  
Sea Level Pressure 30.15 in    
Wind  
Wind Speed 9 mph (South)    
Max Wind Speed 23 mph    
Max Gust Speed 32 mph    
Visibility 10 miles    
Events      
T = Trace of Precipitation, MM = Missing Value Source: NWS Daily Summary

Daily Weather History Graph

Daily Weather History Graph

Search for Another Location

Airport:

Trip Planner

Search our weather history database for the weather conditions in past years. The results will help you decide how hot, cold, wet, or windy it might be!

Date:

Astronomy

Mar. 20, 2013 Rise Set
Actual Time 7:48 AM CDT 7:57 PM CDT
Civil Twilight 7:23 AM CDT 8:23 PM CDT
Nautical Twilight 6:53 AM CDT 8:52 PM CDT
Astronomical Twilight 6:23 AM CDT 9:23 PM CDT
Moon 1:45 PM CDT (3/20) 3:19 AM CDT (3/20)
Length of Visible Light 12h 59m
Length of Day
12h 08m
First Quarter, 59% of the Moon is Illuminated
Mar 20
First Quarter
Mar 27
Full
Apr 2
Last Quarter
Apr 10
New
Apr 18
First Quarter

Hourly Weather History & Observations

Time (CDT) Temp. Windchill Dew Point Humidity Pressure Visibility Wind Dir Wind Speed Gust Speed Precip Events Conditions
12:51 AM 44.1 °F 41.5 °F 17.1 °F 34% 30.25 in 10.0 mi NE 4.6 mph - N/A   Clear
1:51 AM 42.1 °F 38.4 °F 14.0 °F 32% 30.26 in 10.0 mi NNE 5.8 mph - N/A   Clear
2:51 AM 39.0 °F - 14.0 °F 36% 30.28 in 10.0 mi Calm Calm - N/A   Clear
3:51 AM 37.9 °F - 14.0 °F 38% 30.28 in 10.0 mi Calm Calm - N/A   Clear
4:51 AM 35.1 °F - 15.1 °F 44% 30.28 in 10.0 mi Calm Calm - N/A   Clear
5:51 AM 30.9 °F 26.2 °F 17.1 °F 57% 30.31 in 10.0 mi WSW 4.6 mph - N/A   Clear
6:51 AM 30.9 °F 27.5 °F 17.1 °F 57% 30.34 in 10.0 mi WSW 3.5 mph - N/A   Clear
7:51 AM 30.9 °F 27.5 °F 18.0 °F 59% 30.36 in 10.0 mi WNW 3.5 mph - N/A   Clear
8:51 AM 32.0 °F - 18.0 °F 56% 30.36 in 10.0 mi Calm Calm - N/A   Clear
10:51 AM 44.1 °F - 19.9 °F 38% 30.32 in 10.0 mi Calm Calm - N/A   Clear
11:51 AM 50.0 °F - 17.1 °F 27% 30.30 in 10.0 mi SSE 9.2 mph - N/A   Clear
12:51 PM 55.0 °F - 14.0 °F 20% 30.25 in 10.0 mi South 8.1 mph 18.4 mph N/A   Clear
1:51 PM 57.9 °F - 12.9 °F 17% 30.19 in 10.0 mi South 12.7 mph 19.6 mph N/A   Clear
2:51 PM 60.1 °F - 15.1 °F 17% 30.13 in 10.0 mi South 9.2 mph 17.3 mph N/A   Clear
3:51 PM 61.0 °F - 17.1 °F 18% 30.06 in 10.0 mi South 20.7 mph 29.9 mph N/A   Clear
4:51 PM 63.0 °F - 17.1 °F 17% 30.01 in 10.0 mi SSW 16.1 mph 28.8 mph N/A   Clear
6:51 PM 62.1 °F - 21.9 °F 21% 29.95 in 10.0 mi SSW 18.4 mph 31.1 mph N/A   Clear
7:51 PM 60.1 °F - 21.9 °F 23% 29.94 in 10.0 mi South 15.0 mph 20.7 mph N/A   Clear
8:51 PM 57.9 °F - 21.9 °F 25% 29.93 in 10.0 mi South 12.7 mph - N/A   Clear
9:51 PM 57.0 °F - 23.0 °F 27% 29.89 in 10.0 mi South 12.7 mph 19.6 mph N/A   Clear
10:51 PM 54.0 °F - 24.1 °F 31% 29.86 in 10.0 mi South 12.7 mph 19.6 mph N/A   Clear
11:51 PM 52.0 °F - 23.0 °F 32% 29.82 in 10.0 mi SSE 13.8 mph 20.7 mph N/A   Clear